Location: Carr Mill
(33.2054°N, 85.9439°W)
Time: 01:35:04
(UTC+00:00)

STARLINK-2732 - Pass Details

Date: 29 October 2021
Orbit: 545 x 549 km, 53.1° (Epoch: 07 December)

Event Time Altitude Azimuth Distance (km) Brightness Sun altitude
Exits shadow 10:53:56 22° 304° (WNW) 1,237 4.9 -14.3°
Maximum altitude 10:54:52 23° 324° (NW) 1,177 4.9 -14.1°
Drops below altitude 10° 10:58:13 10° 18° (NNE) 1,817 6.4 -13.4°
Sets 11:00:48 0° 33° (NNE) 2,713 7.5 -12.9°
